Regional Weather Roundup
Issued by NWS

Home | Current Version | Previous Version | Graphics & Text | Print | Product List | Glossary On
Versions: 1 2 3 4 5 6 7 8 9 10 11 12 13 14 15 16 17 18 19 20 21 22 23 24 25 26 27 28 29 30 31 32 33 34 35 36 37 38 39 40 41 42 43 44 45 46 47 48 49 50
000
ASUS43 KMKX 270559
RWRWI

WISCONSIN REGIONAL WEATHER ROUNDUP
NATIONAL WEATHER SERVICE MILWAUKEE/SULLIVAN WI
1200 AM CST TUE JAN 27 2015

NOTE: "FAIR" INDICATES FEW OR NO CLOUDS BELOW 12,000 FEET WITH NO
SIGNIFICANT WEATHER AND/OR OBSTRUCTIONS TO VISIBILITY.

WIZ001-002-006>008-014>016-023>028-270700-
NORTHWEST WISCONSIN

CITY           SKY/WX    TMP DP  RH WIND       PRES   REMARKS
SUPERIOR ARPT  CLOUDY    29  24  82 N8        29.99R WCI  21
ASHLAND        CLOUDY    25  23  92 W3        29.98R
6HR MIN TEMP:  24; 6HR MAX TEMP:  25;

HAYWARD        CLOUDY    27  24  89 NW5       29.95R WCI  22
6HR MIN TEMP:  25; 6HR MAX TEMP:  28;

SIREN          CLOUDY    31  25  77 N13       29.98R WCI  21
CUMBERLAND     CLOUDY    30  25  80 N10G20    29.94R WCI  21
RICE LAKE      CLOUDY    31  26  83 N12       29.96R WCI  21
CHETEK         CLOUDY    29  27  94 CALM      29.95R
LADYSMITH      CLOUDY    25  23  94 N5        29.95R WCI  19
EAU CLAIRE     NOT AVBL
MENOMONIE      CLOUDY    31  29  93 CALM      29.95R FOG
NEW RICHMOND   CLOUDY    34  26  74 N12       29.97R WCI  25
OSCEOLA        CLOUDY    34  28  77 N8        30.00R WCI  28
$$

WIZ003>005-009-010-017-018-270700-
NORTH CENTRAL WISCONSIN

CITY           SKY/WX    TMP DP  RH WIND       PRES   REMARKS
MANITOWISH WTR CLOUDY    19  17  95 CALM      29.91R
ARBOR VITAE    CLOUDY    22  19  90 CALM      29.91R
WOODRUFF       CLOUDY    22  19  90 CALM      29.91R
RHINELANDER    CLOUDY    19  17  92 CALM      29.91R
6HR MIN TEMP:  19; 6HR MAX TEMP:  20; 6HR PCP:  0.01;

EAGLE RIVER    CLOUDY    19  16  86 CALM      29.91R
LAND O LAKES   CLOUDY    19  17  92 CALM      29.92R
PHILLIPS       CLOUDY    20  18  93 CALM      29.91R
TOMAHAWK       CLOUDY    20  18  93 CALM      29.91S FOG
MEDFORD        CLOUDY    20  19  93 NE3       29.90R
MERRILL        CLOUDY    20  20  97 CALM      29.92R FOG
$$

WIZ029-030-035-036-043>047-270700-
CENTRAL WISCONSIN

CITY           SKY/WX    TMP DP  RH WIND       PRES   REMARKS
WAUSAU         CLOUDY    21  19  92 NE3       29.91R
6HR MIN TEMP:  21; 6HR MAX TEMP:  22; 6HR PCP:  0.01;

MOSINEE        CLOUDY    21  21 100 N3        29.92R
MARSHFIELD     CLOUDY    23  20  88 NE3       29.92R FOG
6HR MIN TEMP:  23; 6HR MAX TEMP:  24; 6HR PCP: TRACE;

STEVENS POINT  CLOUDY    20  19  94 N3        29.92R
WAUPACA        CLOUDY    26  23  89 CALM      29.93S FOG
WAUTOMA        CLOUDY    23  23 100 CALM      29.93R
WISC RAPIDS    CLOUDY    23  19  85 N3        29.94R
6HR MIN TEMP:  23; 6HR MAX TEMP:  23; 6HR PCP:  0.01;

CAMP DOUGLAS   CLOUDY    25  25 100 N1        29.92R
$$

WIZ011>013-019>022-031-037>040-048>050-270700-
NORTHEAST WISCONSIN

CITY           SKY/WX    TMP DP  RH WIND       PRES   REMARKS
ANTIGO         CLOUDY    20  19  96 E5        29.91R WCI  14
SHAWANO        FLURRIES  25  22  89 NE3       29.95R
OCONTO         CLOUDY    23  23  99 MISG      29.98S
STURGEON BAY   CLOUDY    23  18  80 SE6       30.00R WCI  16
6HR MIN TEMP:  23; 6HR MAX TEMP:  25;

GREEN BAY      LGT SNOW  24  22  91 E6        29.97R FOG     WCI  17
6HR MIN TEMP:  24; 6HR MAX TEMP:  25; 6HR PCP:  0.11;

MANITOWOC      NOT AVBL
APPLETON       LGT SNOW  25  23  93 E3        29.93R
CLINTONVILLE   CLOUDY    25  23  93 E3        29.94R
OSHKOSH        CLOUDY    23  20  88 N3        29.93R FOG
6HR MIN TEMP:  23; 6HR MAX TEMP:  24; 6HR PCP:  0.03;

$$

WIZ032>034-041-042-053>061-270700-
SOUTHWEST WISCONSIN

CITY           SKY/WX    TMP DP  RH WIND       PRES   REMARKS
LA CROSSE      CLOUDY    30  27  88 NW3       29.95R FOG
6HR MIN TEMP:  30; 6HR MAX TEMP:  31; 6HR PCP: TRACE;

SPARTA         CLOUDY    27  27 100 CALM      29.94R FOG
VIROQUA        CLOUDY    28  28 100 NW8       29.90R WCI  20
BOSCOBEL       CLOUDY    27  25  92 CALM      29.94R FOG
6HR MIN TEMP:  27; 6HR MAX TEMP:  28;

PRAIRIE DU CHI CLOUDY    30  27  88 CALM      29.93R FOG
PLATTEVILLE    CLOUDY    26  26  96 CALM      29.90R
$$

WIZ056-057-062-063-064-067-068-270700-
SOUTH CENTRAL WISCONSIN

CITY           SKY/WX    TMP DP  RH WIND       PRES   REMARKS
REEDSBURG      CLOUDY    24  23  97 CALM      29.91R FOG
BARABOO/DELLS  CLOUDY    23  22  94 CALM      29.91R FOG
LONE ROCK      CLOUDY    25  23  92 CALM      29.93R
MINERAL POINT  CLOUDY    28  27  93 CALM      29.89R FOG
MADISON        CLOUDY    24  21  88 CALM      29.90S FOG
6HR MIN TEMP:  24; 6HR MAX TEMP:  25; 6HR PCP: TRACE;

MIDDLETON      CLOUDY    26  25  94 CALM      29.91R
WATERTOWN      CLOUDY    24  24  99 CALM      29.91S
MONROE         FOG       27  27 100 CALM      29.89R VSB 1/2
JANESVILLE     CLOUDY    28  27  93 CALM      29.90S FOG
$$

WIZ051-052-058>065-066-070>072-270700-
SOUTHEAST WISCONSIN

CITY           SKY/WX    TMP DP  RH WIND       PRES   REMARKS
MILWAUKEE      LGT SNOW  27  21  78 CALM      29.93R
6HR MIN TEMP:  25; 6HR MAX TEMP:  27; 6HR PCP:  0.04;

WAUKESHA       CLOUDY    23  23 100 CALM      29.92R FOG
MILWAUKEE/TIMM CLOUDY    27  23  86 CALM      29.94R
RACINE         CLOUDY    27  22  81 CALM      29.94R
6HR MIN TEMP:  26; 6HR MAX TEMP:  27; 6HR PCP: TRACE;

BURLINGTON     LGT SNOW  23  22  97 CALM      29.92R
KENOSHA        CLOUDY    26  23  88 CALM      29.92R
6HR MIN TEMP:  26; 6HR MAX TEMP:  26; 6HR PCP:  0.03;

FOND DU LAC    CLOUDY    24  21  88 S3        29.92S
6HR MIN TEMP:  24; 6HR MAX TEMP:  25; 6HR PCP:  0.07;

SHEBOYGAN      CLOUDY    26  22  84 SE5       29.94R WCI  20
6HR MIN TEMP:  25; 6HR MAX TEMP:  26; 6HR PCP:  0.02;

WEST BEND      LGT SNOW  25  21  86 CALM      29.91S
JUNEAU         CLOUDY    24  22  95 CALM      29.92S FOG
$$

LSZ147-162-270700-
LAKE SUPERIOR

STATION/POSITION TIME  TEMP    WIND        PRES    WAVE
                       AIR SEA DIR/SP/G            HT/PER
                 (UTC) (F)     (DEG/KT/KT) (MB)    (FT/S)
DEVILS ISLAND    0500   29      30/  7/  8 1015.4R
PORT WING        0500   30     350/ 12/ 14 1014.9R
SAXON HARBOR     0500   25        CALM     1014.6R
$$

LMZ867-665-643>646-270700-
LAKE MICHIGAN

STATION/POSITION TIME  TEMP    WIND        PRES    WAVE
                       AIR SEA DIR/SP/G            HT/PER
                 (UTC) (F)     (DEG/KT/KT) (MB)    (FT/S)
NORTHPORT PIER   0522   24     170/  3/  8 1016.3R
SISTER BAY       0513   23     150/  3/  8   N/A
KEWAUNEE LAKESHO 0500   26     160/ 11/ 13 1014.1R
SHEBOYGAN LAKESH 0500   27     110/ 16/ 18 1014.9R
PORT WASHINGTON  0500   27        CALM     1014.6R
KENOSHA   LAKESH 0500   27     200/  2/  3 1013.2R
$$

TC  - TEMPERATURE IN CELSIUS
VSB - VISIBILITY IN STATUTE MILES
WCI - WIND CHILL INDEX
HX  - HEAT INDEX



USA.gov is the U.S. government's official web portal to all federal, state and local government web resources and services.